Weather in San Crist贸bal

Dominican Republic     18掳24鈥58鈥砃   70掳06鈥28鈥砏
temp.,
掳C
wind,
m/s
gust,
m/s
humid.,
%
clouds,
%
prec.,
mm/h
press.,
hPa
HPBL,
m
25 june, sat
sat2523:00+25nnw128354 0.1 1016113
02:00+24nnw128674 0.1 101573
05:00+23nnw238990 0.0 101581
08:00+26n347136 0.0 1016405
11:00+30ese345956 0.4 10161227
14:00+31sse445298 1.5 10141436
17:00+30sse446157 0.1 1014829
20:00+26se238014 0.5 1015107
26 june, sun
sun2623:00+25nnw118646 1.0 101761
02:00+23nnw119021 2.9 101539
05:00+23nnw1192100 0.1 101551
08:00+25n118258 0.2 1017232
11:00+29se446554 0.5 10171096
14:00+30sse555781 0.9 10161371
17:00+29sse455722 0.0 10151090
20:00+26sse23795 0.0 1016197
27 june, mon
mon2723:00+25sse128521 0.2 1018128
02:00+24nnw129015 0.4 1016128
05:00+23nnw22935 0.1 101664
08:00+26ne12785 0.1 1017360
11:00+30se355525 0.2 10171527
14:00+31sse555585 0.3 10161013
17:00+30se456087 0.3 1015997
20:00+25se238477 2.2 1017122
28 june, tue
tue2823:00+24n1286100 3.1 101873
02:00+23nnw2390100 4.8 101779
05:00+23nnw2489100 0.3 1017102
08:00+25n3581100 0.3 1017238
11:00+30ene355635 0.0 10181427
14:00+30se556142 0.3 1017884
17:00+29sse456761 1.2 1017764
20:00+26ese1279100 1.3 101888
29 june, wed
wed2923:00+24n348343 0.0 1020116
02:00+23nnw248880 0.0 1019104
05:00+23nnw348650 0.0 1018119
08:00+26n3578100 0.0 1019462
11:00+31ene355444 0.1 10191615
14:00+30ese4558100 0.1 1017960
17:00+28ese237166 1.0 1017373
20:00+25nne4108699 1.9 1018360